TimeCST,TemperatureF,Dew PointF,Humidity,Sea Level PressureIn,VisibilityMPH,Wind Direction,Wind SpeedMPH,Gust SpeedMPH,PrecipitationIn,Events,Conditions,WindDirDegrees,DateUTC
12:56 AM,37.0,28.0,70,30.24,10.0,NE,3.5,-,N/A,,Overcast,40,2012-11-04 05:56:00
1:56 AM,37.0,28.0,70,30.25,10.0,Calm,Calm,-,N/A,,Overcast,0,2012-11-04 06:56:00
1:56 AM,36.0,28.0,73,30.25,10.0,Calm,Calm,-,N/A,,Overcast,0,2012-11-04 07:56:00
2:56 AM,36.0,28.0,73,30.24,10.0,NE,3.5,-,N/A,,Overcast,50,2012-11-04 08:56:00
3:56 AM,34.0,27.0,75,30.24,10.0,Calm,Calm,-,N/A,,Overcast,0,2012-11-04 09:56:00
4:56 AM,30.9,26.1,82,30.25,10.0,NE,4.6,-,N/A,,Overcast,40,2012-11-04 10:56:00
5:56 AM,28.9,26.1,89,30.25,10.0,NE,3.5,-,N/A,,Partly Cloudy,40,2012-11-04 11:56:00
6:56 AM,28.9,26.1,89,30.25,10.0,NNE,3.5,-,N/A,,Mostly Cloudy,20,2012-11-04 12:56:00
7:56 AM,34.0,28.9,82,30.27,10.0,Calm,Calm,-,N/A,,Overcast,0,2012-11-04 13:56:00
8:56 AM,37.9,28.9,70,30.25,10.0,ENE,5.8,-,N/A,,Mostly Cloudy,60,2012-11-04 14:56:00
9:56 AM,39.9,28.0,63,30.24,10.0,ENE,3.5,-,N/A,,Clear,60,2012-11-04 15:56:00
10:56 AM,43.0,28.9,58,30.23,10.0,SSE,3.5,-,N/A,,Clear,160,2012-11-04 16:56:00
11:56 AM,45.0,28.9,53,30.21,10.0,Calm,Calm,-,N/A,,Clear,0,2012-11-04 17:56:00
12:56 PM,46.0,28.9,51,30.20,10.0,South,6.9,-,N/A,,Clear,170,2012-11-04 18:56:00
1:56 PM,46.9,28.9,50,30.18,10.0,SE,6.9,-,N/A,,Mostly Cloudy,140,2012-11-04 19:56:00
2:56 PM,46.0,28.9,51,30.17,10.0,ESE,4.6,-,N/A,,Clear,120,2012-11-04 20:56:00
3:56 PM,44.1,28.9,55,30.18,9.0,SSE,3.5,-,N/A,,Clear,150,2012-11-04 21:56:00
4:56 PM,39.9,28.9,65,30.18,10.0,Calm,Calm,-,N/A,,Overcast,0,2012-11-04 22:56:00
5:56 PM,37.9,28.0,68,30.20,9.0,ENE,4.6,-,N/A,,Overcast,60,2012-11-04 23:56:00
6:56 PM,39.0,27.0,62,30.20,10.0,East,8.1,-,N/A,,Scattered Clouds,90,2012-11-05 00:56:00
7:56 PM,37.0,27.0,67,30.19,10.0,East,3.5,-,N/A,,Clear,90,2012-11-05 01:56:00
8:56 PM,33.1,26.1,75,30.20,10.0,Calm,Calm,-,N/A,,Scattered Clouds,0,2012-11-05 02:56:00
9:56 PM,35.1,27.0,72,30.20,10.0,ENE,4.6,-,N/A,,Overcast,60,2012-11-05 03:56:00
10:56 PM,36.0,27.0,70,30.20,10.0,ENE,5.8,-,N/A,,Overcast,70,2012-11-05 04:56:00